Location: Napa Junction
(38.1874°N, 122.2508°W)
Time: 15:04:39
(UTC+00:00)

Cosmos 1939 Rocket - Pass Details

Date: 08 September 2024
Orbit: 510 x 550 km, 97.5° (Epoch: 08 October)

Event Time Altitude Azimuth Distance (km) Brightness Sun altitude
Rises 12:53:09 0° 8° (N) 2,745 6.7 -10.9°
Reaches altitude 10° 12:55:18 10° 6° (N) 1,849 5.8 -10.4°
Maximum altitude 12:59:17 66° 284° (WNW) 612 2.8 -9.7°
Drops below altitude 10° 13:03:14 10° 202° (SSW) 1,839 5.1 -8.9°
Enters shadow 13:07:34 -7° 198° (SSW) 3,651 6.7 -8.1°
